Find Starlink 35751

NORAD ID: 66208 Int'l Des: 2025-244 Owner: SPXS Country: US Constellation: starlink operational
LEOCIRCULAR

現在のビュー

3D地球を読み込み中...

About Starlink 35751

Starlink 35751 (NORAD 66208) is a starlink constellation satellite (v2 mini) launched Oct 28, 2025 by SPXS of US. It operates in LEO, CIRCULAR orbit with a mass of 575.00 kg.

Starlink 35751について

説明を読み込み中...

次回通過

Passes for default location (London). Set your location on the main map for personalized predictions.

高度履歴

Loading altitude history...

軌道要素

1 66208U 25244C 26191.00531514 .00018391 00000-0 55385-3 0 9998
2 66208 53.1606 20.5677 0000808 79.2197 280.8896 15.34413988 40408
Epoch: Jul 10, 2026 • Age: 17 hours

現在のステータス

高度 462.9 km
遠地点 / 近地点 N/A
速度 7.64 km/s
衛星直下点 3.97°N, 168.63°W
打ち上げ日 Oct 28, 2025
運用期間 0.6 years
タイプ internet

技術仕様

分類 Payload
質量 575.00 kg
乾燥質量 530.00 kg
総質量 575.00 kg
長さ 0.30 m
直径 4.10 m
スパン 29.00 m
形状 Box + pan
製造者 SPXS
バスタイプ Starlink V2MO
フェーズステータス In Orbit
所有者/国 SPXS/US

Most Searched